Wolf Point, MT

6:58 PM MDT on March 29, 2017 (GMT -0600)
Clayton

Weather History for KOLF - September, 2012

Change the Weather History Date:

Sunday, September 2, 2012

  Actual Average Record
Temperature  
Mean Temperature 65 °F -  
Max Temperature 83 °F 80 °F 101 °F (2015)
Min Temperature 46 °F 46 °F 33 °F (2006)
Degree Days  
Heating Degree Days 0    
Cooling Degree Days 0    
Growing Degree Days 17 (Base 50)    
Moisture  
Dew Point 38 °F    
Average Humidity 45    
Maximum Humidity 88    
Minimum Humidity 14    
Precipitation  
Precipitation 0.00 in 0.04 in 0.38 in (1999)
Month to date precipitation 0.01 0.08  
Year to date precipitation 9.13 9.75  
Sea Level Pressure  
Sea Level Pressure 29.85 in    
Wind  
Wind Speed 8 mph (WSW)    
Max Wind Speed 23 mph    
Max Gust Speed 29 mph    
Visibility 10 miles    
Events      
T = Trace of Precipitation, MM = Missing Value Source: NWS Daily Summary

Daily Weather History Graph

Daily Weather History Graph

Search for Another Location

Airport or City:

Trip Planner

Search our weather history database for the weather conditions in past years. The results will help you decide how hot, cold, wet, or windy it might be!

Date:

Astronomy

Sep. 02, 2012 Rise Set
Actual Time 6:22 AM MDT 7:40 PM MDT
Civil Twilight 5:50 AM MDT 8:12 PM MDT
Nautical Twilight 5:11 AM MDT 8:50 PM MDT
Astronomical Twilight 4:29 AM MDT 9:32 PM MDT
Moon 8:11 PM MDT (9/2) 8:49 AM MDT (9/2)
Length of Visible Light 14h 22m
Length of Day
13h 17m
Waning Gibbous, 95% of the Moon is Illuminated
Sep 2
Waning Gibbous
Sep 8
Last Quarter
Sep 15
New
Sep 22
First Quarter
Sep 29
Full

Hourly Weather History & Observations

Time (MDT) Temp. Dew Point Humidity Pressure Visibility Wind Dir Wind Speed Gust Speed Precip Events Conditions
12:53 AM 62.1 °F 54.0 °F 75% 29.76 in 10.0 mi Calm Calm - N/A   Clear
1:53 AM 57.2 °F 53.6 °F 88% 29.80 in 10.0 mi WNW 5.8 mph - N/A   Clear
2:53 AM 59.0 °F 52.0 °F 78% 29.78 in 9.0 mi West 6.9 mph - N/A   Clear
3:53 AM 57.0 °F 52.0 °F 83% 29.80 in 9.0 mi SW 6.9 mph - N/A   Clear
4:53 AM 57.9 °F 52.0 °F 81% 29.83 in 9.0 mi SW 8.1 mph - N/A   Clear
5:53 AM 57.0 °F 51.1 °F 81% 29.86 in 9.0 mi WSW 10.4 mph - N/A   Clear
6:53 AM 55.9 °F 50.0 °F 80% 29.88 in 8.0 mi SW 9.2 mph - N/A   Clear
7:53 AM 57.2 °F 50.0 °F 77% 29.91 in 9.0 mi WSW 8.1 mph - N/A   Clear
8:53 AM 62.1 °F 46.9 °F 58% 29.91 in 10.0 mi WSW 11.5 mph - N/A   Clear
9:53 AM 69.1 °F 41.0 °F 36% 29.91 in 10.0 mi WSW 12.7 mph - N/A   Clear
10:53 AM 75.0 °F 33.1 °F 22% 29.90 in 10.0 mi West 19.6 mph 24.2 mph N/A   Clear
11:53 AM 77.0 °F 28.9 °F 17% 29.89 in 10.0 mi WSW 16.1 mph 25.3 mph N/A   Clear
12:53 PM 79.0 °F 30.9 °F 17% 29.88 in 10.0 mi West 18.4 mph 25.3 mph N/A   Clear
1:53 PM 81.0 °F 30.9 °F 16% 29.86 in 10.0 mi West 23.0 mph 28.8 mph N/A   Clear
2:53 PM 81.0 °F 28.9 °F 15% 29.85 in 10.0 mi WSW 17.3 mph 27.6 mph N/A   Clear
3:53 PM 82.0 °F 28.9 °F 14% 29.84 in 10.0 mi WSW 11.5 mph 26.5 mph N/A   Clear
4:53 PM 82.0 °F 28.9 °F 14% 29.83 in 10.0 mi West 17.3 mph 21.9 mph N/A   Clear
5:53 PM 81.0 °F 28.9 °F 15% 29.83 in 10.0 mi SW 13.8 mph - N/A   Clear
6:53 PM 77.0 °F 30.9 °F 19% 29.83 in 10.0 mi SW 6.9 mph - N/A   Clear
7:53 PM 72.0 °F 30.0 °F 21% 29.84 in 10.0 mi SSW 3.5 mph - N/A   Clear
8:53 PM 61.0 °F 30.9 °F 32% 29.85 in 9.0 mi Calm Calm - N/A   Clear
9:53 PM 52.0 °F 28.9 °F 41% 29.85 in 6.0 mi WNW 3.5 mph - N/A   Haze
10:53 PM 54.0 °F 28.9 °F 38% 29.85 in 10.0 mi Calm Calm - N/A   Clear
11:53 PM 48.0 °F 30.0 °F 50% 29.87 in 10.0 mi Calm Calm - N/A   Clear